Temp
-6 -6 -7 -7 -7 -7 -7 -7 -7 -7 -7 -7 -8 -8 -8 -8 -8 -8 -8 -8 -8 -9 -9 -9 -9 -9 -9 -9 -9 -9 -9 -8 -9 -9 -9 -9 -7 -8 -7 -7 -6 -7 -7 -7 -6
-6 -7 -7 -7 -7 -7 -7 -7 -7 -7 -7 -7 -8 -8 -8 -8 -8 -9 -8 -9 -9 -9 -9 -10 -10 -9 -9 -9 -9 -9 -9 -9 -9 -10 -9 -9 -8 -8 -8 -8 -7 -7 -8 -8 -7
-7 -7 -7 -7 -7 -7 -7 -7 -7 -8 -8 -8 -8 -8 -8 -9 -9 -9 -9 -9 -9 -9 -10 -10 -10 -10 -9 -9 -9 -9 -9 -10 -10 -9 -9 -9 -8 -8 -8 -8 -8 -7 -8 -8 -8
-7 -7 -7 -7 -7 -8 -8 -8 -8 -8 -8 -8 -8 -8 -8 -8 -8 -9 -9 -9 -9 -9 -10 -10 -10 -10 -10 -10 -10 -10 -9 -10 -10 -9 -9 -9 -9 -8 -8 -8 -8 -8 -8 -8 -8
-7 -7 -7 -7 -7 -8 -8 -8 -8 -8 -8 -8 -9 -9 -9 -9 -9 -9 -9 -9 -9 -10 -10 -11 -11 -11 -11 -11 -10 -10 -10 -10 -10 -9 -10 -9 -9 -9 -8 -8 -8 -8 -8 -8 -7
-7 -8 -8 -8 -7 -7 -8 -8 -8 -8 -8 -8 -8 -9 -9 -9 -9 -9 -9 -10 -10 -10 -10 -11 -11 -11 -11 -11 -10 -11 -11 -10 -10 -10 -10 -9 -9 -8 -8 -8 -8 -8 -8 -8 -7
-8 -8 -8 -8 -8 -8 -7 -7 -8 -8 -8 -9 -9 -8 -8 -8 -9 -10 -10 -10 -10 -10 -10 -11 -11 -11 -11 -11 -11 -11 -11 -11 -10 -10 -10 -9 -9 -9 -9 -8 -8 -8 -8 -8 -8
-7 -7 -7 -7 -7 -8 -8 -8 -8 -8 -8 -9 -9 -9 -9 -9 -9 -10 -10 -10 -10 -11 -11 -11 -11 -11 -12 -12 -11 -12 -12 -12 -12 -11 -10 -10 -10 -10 -9 -9 -9 -8 -8 -8 -8
-8 -8 -8 -7 -7 -8 -8 -8 -9 -9 -9 -9 -9 -9 -9 -10 -9 -10 -10 -10 -10 -11 -11 -11 -12 -12 -12 -12 -12 -12 -12 -12 -12 -13 -11 -10 -11 -10 -9 -9 -9 -8 -8 -8 -8
-8 -8 -8 -7 -7 -7 -8 -8 -9 -9 -9 -10 -10 -10 -9 -9 -9 -10 -11 -11 -11 -11 -12 -12 -12 -12 -12 -12 -12 -12 -13 -13 -14 -15 -12 -11 -11 -11 -10 -10 -10 -9 -9 -9 -8
-7 -7 -8 -8 -8 -8 -9 -8 -9 -9 -10 -10 -10 -10 -10 -10 -10 -10 -11 -11 -11 -11 -12 -12 -12 -12 -12 -13 -13 -14 -15 -15 -15 -15 -15 -13 -12 -11 -13 -11 -10 -10 -10 -10 -9
-8 -7 -8 -8 -9 -9 -9 -9 -10 -9 -8 -10 -10 -10 -11 -10 -10 -11 -12 -12 -12 -12 -13 -12 -12 -13 -13 -13 -14 -14 -15 -15 -16 -15 -16 -13 -13 -12 -12 -12 -11 -10 -11 -10 -11
-7 -8 -8 -9 -8 -9 -10 -10 -11 -11 -10 -10 -11 -11 -12 -11 -11 -11 -12 -12 -12 -13 -13 -13 -13 -14 -13 -13 -13 -14 -15 -15 -15 -16 -15 -15 -15 -13 -13 -12 -11 -12 -12 -11 -11
-8 -8 -8 -9 -11 -12 -11 -12 -12 -12 -11 -10 -11 -11 -11 -12 -12 -12 -13 -13 -12 -13 -13 -13 -14 -14 -14 -13 -14 -14 -15 -16 -16 -16 -16 -15 -15 -14 -13 -13 -12 -12 -12 -12 -12
-9 -10 -10 -11 -12 -13 -12 -12 -13 -13 -13 -13 -11 -11 -12 -12 -13 -13 -13 -13 -13 -13 -14 -14 -14 -14 -14 -14 -14 -14 -16 -15 -16 -16 -16 -15 -15 -14 -15 -14 -13 -12 -12 -12 -12
-9 -10 -11 -12 -13 -13 -13 -13 -14 -14 -12 -15 -13 -13 -13 -14 -14 -14 -13 -14 -14 -14 -14 -15 -16 -15 -14 -15 -14 -15 -15 -15 -16 -16 -16 -15 -15 -14 -14 -14 -15 -13 -13 -13 -13
-10 -11 -13 -13 -13 -13 -15 -16 -16 -16 -17 -17 -16 -15 -16 -15 -15 -15 -14 -14 -14 -14 -14 -15 -16 -16 -15 -15 -15 -15 -15 -16 -16 -16 -15 -16 -15 -14 -14 -14 -14 -14 -14 -14 -14
-11 -13 -13 -13 -13 -16 -18 -19 -18 -17 -17 -17 -16 -15 -17 -17 -17 -18 -15 -15 -15 -15 -17 -17 -17 -17 -14 -15 -16 -16 -16 -16 -15 -15 -15 -15 -15 -15 -14 -14 -14 -14 -15 -14 -14
-13 -13 -13 -14 -17 -19 -20 -18 -18 -18 -18 -18 -16 -15 -16 -17 -17 -17 -17 -16 -15 -16 -16 -16 -17 -16 -17 -16 -17 -17 -17 -16 -15 -15 -14 -15 -14 -14 -14 -14 -15 -14 -15 -15 -14
-14 -14 -14 -18 -18 -18 -20 -19 -20 -20 -19 -20 -18 -17 -16 -16 -16 -17 -18 -18 -18 -16 -16 -16 -16 -16 -17 -16 -16 -16 -16 -16 -15 -15 -15 -14 -14 -15 -15 -15 -15 -16 -15 -15 -15
-15 -17 -17 -18 -19 -20 -21 -21 -21 -21 -21 -21 -19 -18 -17 -17 -16 -15 -16 -16 -17 -17 -16 -16 -17 -16 -17 -17 -17 -17 -17 -15 -15 -16 -15 -15 -14 -14 -14 -15 -15 -16 -16 -15 -15
-17 -19 -18 -19 -20 -21 -21 -22 -21 -21 -20 -20 -19 -18 -17 -16 -17 -16 -15 -15 -16 -17 -17 -17 -17 -16 -17 -17 -16 -16 -16 -16 -16 -16 -15 -15 -15 -15 -15 -15 -15 -15 -15 -15 -15
-19 -19 -20 -21 -21 -22 -21 -21 -21 -21 -20 -21 -20 -19 -19 -18 -18 -18 -14 -16 -15 -16 -16 -18 -16 -16 -15 -16 -16 -16 -16 -16 -16 -16 -16 -16 -16 -15 -15 -15 -15 -16 -15 -15 -15
-19 -20 -21 -21 -21 -22 -22 -22 -21 -21 -20 -20 -19 -19 -18 -18 -18 -18 -17 -17 -16 -16 -16 -17 -16 -16 -15 -15 -16 -16 -16 -17 -17 -16 -16 -16 -17 -16 -16 -15 -16 -16 -16 -16 -15
-20 -21 -22 -22 -22 -22 -22 -22 -21 -21 -20 -20 -19 -19 -19 -18 -18 -18 -17 -17 -17 -17 -16 -16 -16 -16 -15 -15 -16 -17 -17 -17 -17 -16 -16 -16 -17 -15 -15 -15 -15 -16 -16 -16 -15
-21 -22 -22 -23 -23 -22 -22 -22 -21 -21 -20 -20 -19 -19 -19 -18 -18 -17 -17 -17 -17 -17 -17 -16 -16 -17 -16 -16 -15 -16 -17 -16 -17 -17 -18 -18 -17 -17 -16 -16 -16 -15 -15 -16 -15
-23 -23 -23 -23 -23 -22 -22 -22 -21 -21 -20 -20 -19 -19 -19 -18 -18 -18 -17 -17 -17 -17 -17 -16 -16 -16 -16 -17 -17 -16 -17 -17 -17 -17 -18 -18 -17 -18 -17 -16 -16 -15 -15 -15 -15
Height
5837 5834 5832 5829 5826 5824 5821 5818 5817 5815 5814 5812 5811 5808 5806 5805 5804 5802 5801 5802 5800 5801 5803 5804 5807 5811 5813 5817 5820 5823 5824 5827 5833 5835 5838 5837 5834 5836 5840 5846 5848 5852 5857 5851 5850
5834 5832 5830 5827 5824 5821 5818 5815 5812 5810 5808 5807 5805 5803 5801 5799 5797 5797 5796 5796 5795 5795 5795 5796 5798 5801 5805 5809 5812 5815 5818 5823 5826 5824 5825 5829 5828 5831 5836 5839 5840 5844 5847 5847 5851
5831 5828 5826 5823 5821 5818 5814 5811 5809 5806 5803 5801 5800 5797 5795 5794 5792 5793 5788 5789 5788 5787 5786 5788 5790 5793 5797 5800 5804 5807 5811 5814 5816 5817 5820 5823 5825 5826 5827 5832 5833 5836 5838 5841 5845
5827 5824 5822 5819 5815 5812 5809 5806 5803 5801 5799 5796 5794 5791 5789 5788 5786 5786 5784 5781 5780 5780 5779 5781 5782 5785 5788 5791 5794 5798 5802 5805 5807 5809 5814 5816 5817 5819 5821 5824 5827 5829 5831 5833 5836
5823 5820 5817 5813 5809 5806 5804 5800 5797 5795 5792 5790 5788 5785 5783 5782 5779 5779 5777 5775 5773 5773 5773 5773 5775 5778 5779 5781 5784 5787 5792 5797 5799 5802 5807 5809 5810 5812 5812 5817 5821 5823 5825 5827 5826
5818 5815 5811 5809 5804 5799 5797 5794 5790 5788 5786 5783 5781 5779 5777 5774 5774 5772 5768 5767 5766 5766 5766 5767 5768 5771 5772 5773 5775 5779 5784 5786 5791 5795 5798 5801 5803 5804 5807 5810 5813 5817 5819 5821 5822
5812 5809 5805 5802 5798 5795 5790 5787 5784 5781 5778 5775 5773 5770 5769 5766 5765 5763 5761 5759 5760 5759 5759 5760 5761 5763 5766 5766 5768 5771 5775 5779 5783 5786 5790 5793 5796 5797 5801 5802 5806 5809 5812 5814 5816
5806 5802 5797 5794 5790 5786 5782 5779 5776 5772 5769 5767 5764 5762 5760 5758 5756 5754 5753 5752 5751 5750 5752 5753 5754 5755 5757 5760 5760 5764 5768 5770 5776 5778 5781 5784 5790 5789 5792 5795 5799 5801 5803 5806 5808
5798 5794 5789 5785 5781 5777 5773 5769 5766 5763 5759 5757 5755 5753 5751 5750 5747 5745 5744 5743 5742 5742 5742 5744 5745 5748 5748 5751 5754 5756 5760 5765 5771 5770 5771 5775 5784 5781 5785 5788 5791 5794 5796 5797 5798
5788 5784 5779 5775 5771 5766 5762 5758 5754 5751 5749 5745 5744 5744 5742 5740 5737 5735 5733 5733 5733 5733 5734 5735 5738 5738 5740 5742 5747 5751 5753 5758 5765 5762 5764 5764 5775 5774 5778 5779 5783 5786 5788 5790 5790
5778 5773 5769 5763 5759 5754 5751 5745 5741 5738 5735 5735 5731 5731 5729 5728 5727 5724 5724 5723 5723 5724 5726 5727 5727 5730 5735 5737 5740 5743 5746 5750 5756 5760 5753 5758 5765 5769 5768 5770 5776 5778 5780 5782 5783
5764 5759 5753 5748 5743 5739 5735 5729 5725 5723 5722 5722 5718 5718 5716 5715 5715 5713 5713 5713 5714 5717 5715 5715 5718 5726 5727 5728 5730 5733 5737 5743 5747 5747 5745 5752 5758 5760 5763 5761 5767 5769 5773 5775 5776
5751 5745 5738 5731 5725 5721 5717 5713 5709 5705 5703 5708 5706 5704 5704 5700 5703 5700 5702 5703 5704 5705 5706 5708 5715 5714 5716 5720 5723 5725 5729 5735 5739 5741 5742 5744 5748 5752 5755 5756 5759 5762 5766 5768 5770
5737 5730 5723 5716 5709 5704 5697 5695 5691 5687 5683 5689 5688 5689 5688 5688 5688 5690 5692 5693 5691 5696 5698 5700 5704 5705 5709 5713 5716 5719 5723 5725 5728 5733 5737 5740 5744 5745 5749 5750 5751 5754 5758 5761 5761
5720 5713 5705 5699 5694 5686 5683 5681 5675 5671 5665 5671 5663 5674 5673 5675 5677 5676 5681 5678 5683 5688 5689 5691 5696 5698 5701 5706 5710 5714 5718 5719 5723 5725 5730 5737 5738 5744 5743 5743 5743 5747 5750 5752 5754
5701 5692 5686 5679 5674 5667 5660 5657 5655 5653 5643 5653 5648 5654 5658 5662 5662 5664 5667 5670 5675 5676 5678 5684 5688 5691 5695 5699 5702 5707 5711 5714 5718 5720 5720 5727 5734 5740 5736 5740 5739 5737 5740 5743 5746
5683 5675 5666 5661 5652 5644 5635 5631 5630 5625 5634 5639 5638 5644 5645 5649 5651 5650 5657 5660 5663 5667 5670 5677 5679 5683 5687 5691 5694 5699 5704 5709 5714 5715 5713 5720 5725 5731 5729 5734 5731 5729 5734 5735 5739
5663 5652 5644 5635 5626 5615 5612 5611 5607 5615 5624 5635 5636 5625 5630 5635 5640 5641 5644 5647 5654 5659 5665 5668 5671 5675 5680 5684 5690 5692 5698 5706 5708 5712 5714 5716 5714 5722 5719 5724 5723 5721 5728 5730 5731
5644 5632 5622 5610 5602 5597 5595 5591 5597 5604 5611 5611 5618 5617 5617 5630 5632 5634 5635 5639 5646 5651 5659 5665 5669 5671 5673 5680 5687 5689 5690 5700 5703 5703 5705 5708 5714 5710 5716 5719 5716 5720 5722 5723 5724
5626 5613 5602 5591 5587 5583 5577 5577 5580 5586 5592 5594 5599 5609 5614 5616 5623 5626 5630 5636 5640 5645 5652 5658 5663 5666 5668 5672 5676 5683 5690 5693 5692 5698 5700 5703 5704 5706 5707 5710 5710 5712 5714 5716 5717
5603 5593 5586 5580 5574 5570 5567 5567 5569 5574 5575 5580 5588 5592 5600 5603 5609 5615 5626 5631 5635 5639 5644 5651 5656 5659 5664 5663 5670 5676 5678 5682 5687 5691 5693 5696 5698 5695 5700 5698 5702 5704 5706 5709 5710
5588 5581 5577 5568 5565 5559 5559 5559 5560 5564 5565 5568 5575 5584 5590 5595 5600 5607 5611 5614 5624 5631 5636 5644 5649 5650 5656 5660 5666 5670 5675 5678 5680 5684 5687 5690 5691 5689 5692 5696 5695 5696 5698 5701 5702
5578 5571 5566 5561 5557 5556 5555 5554 5551 5555 5557 5560 5564 5575 5583 5587 5595 5594 5594 5608 5615 5622 5628 5637 5640 5646 5643 5653 5657 5663 5666 5670 5676 5678 5679 5683 5684 5685 5687 5688 5692 5691 5689 5693 5694
5570 5563 5559 5556 5555 5553 5552 5550 5549 5550 5551 5553 5558 5564 5571 5577 5583 5589 5594 5601 5607 5613 5620 5627 5632 5640 5646 5644 5652 5657 5661 5667 5669 5672 5675 5677 5679 5681 5682 5683 5684 5685 5684 5685 5686
5560 5557 5552 5551 5550 5548 5548 5547 5547 5546 5547 5549 5553 5560 5565 5569 5578 5583 5588 5593 5600 5608 5613 5622 5628 5634 5638 5642 5638 5645 5654 5660 5662 5667 5666 5672 5675 5673 5676 5674 5675 5676 5677 5678 5678
5552 5549 5546 5545 5545 5545 5543 5544 5543 5543 5545 5547 5551 5555 5560 5565 5573 5577 5582 5588 5594 5601 5607 5614 5621 5625 5630 5638 5639 5642 5647 5653 5656 5661 5664 5668 5671 5669 5668 5668 5667 5670 5672 5671 5670
5544 5542 5542 5542 5542 5542 5541 5540 5540 5542 5542 5542 5545 5550 5557 5562 5567 5571 5579 5584 5589 5596 5602 5608 5615 5620 5625 5631 5635 5639 5643 5647 5651 5653 5657 5659 5662 5664 5661 5663 5660 5663 5663 5663 5663
Wind_Speed
21 20 22 22 25 26 25 24 23 20 19 20 22 24 24 25 27 27 27 29 30 33 37 39 42 43 41 40 38 37 39 37 32 33 34 40 48 47 45 47 49 46 45 56 59
19 19 21 24 26 26 28 27 24 22 23 22 22 23 25 25 27 28 30 26 28 30 35 39 41 44 45 42 41 40 41 37 36 40 43 42 46 44 42 40 43 43 42 46 50
20 21 23 25 25 27 28 27 26 27 27 25 26 26 25 25 27 26 31 31 30 30 34 37 38 41 45 45 43 42 41 41 41 44 42 42 43 44 43 40 43 43 43 43 43
24 24 26 27 29 27 26 27 27 29 29 28 26 26 26 28 28 23 26 28 29 29 31 36 36 38 42 46 46 44 44 42 44 43 40 40 41 42 43 43 42 42 41 43 43
27 28 30 31 33 33 30 31 30 30 30 29 30 29 26 26 29 23 27 28 28 29 30 34 35 36 40 44 46 47 45 43 45 43 40 41 41 42 43 40 40 40 40 40 44
30 31 32 31 30 33 35 32 32 31 32 31 31 29 29 30 26 26 30 32 30 28 29 33 34 35 38 42 46 45 42 45 44 44 42 41 41 43 41 40 39 40 37 39 40
34 36 38 37 36 32 33 34 37 37 35 33 32 32 33 34 28 28 29 30 31 29 29 31 34 34 36 38 39 43 43 39 42 43 42 42 42 42 39 42 39 37 35 35 37
36 37 38 40 42 42 39 38 39 41 41 39 37 35 33 34 32 30 27 30 30 32 30 31 32 33 34 36 38 38 39 38 38 41 43 44 40 41 41 40 37 35 35 35 34
43 42 42 43 45 46 47 46 44 45 44 44 42 37 36 34 33 33 29 30 31 32 30 32 34 33 34 35 34 34 35 35 33 37 45 44 36 41 39 36 35 33 33 33 34
48 48 47 47 47 48 51 52 53 51 50 46 45 43 41 37 36 35 31 31 32 32 30 30 32 31 33 31 32 33 32 30 24 30 40 44 35 39 35 36 32 31 30 32 32
52 52 53 55 54 56 57 59 59 57 52 50 49 43 43 40 39 38 33 32 34 32 26 29 34 33 27 27 26 31 26 34 25 24 31 32 32 32 31 37 31 30 29 28 30
54 55 57 59 61 60 60 60 62 61 62 49 49 47 44 44 44 40 34 33 34 31 30 35 33 27 30 32 32 34 36 27 30 42 34 30 28 34 33 37 31 31 27 27 29
59 57 61 64 64 65 63 62 58 56 61 53 48 48 43 48 44 42 35 33 35 35 34 31 26 31 33 35 35 33 37 34 31 23 33 38 35 33 32 35 32 30 28 28 30
62 63 66 68 67 57 65 55 53 52 58 56 49 47 45 43 46 41 35 34 39 35 32 31 30 33 34 34 34 33 33 37 35 33 26 28 29 31 31 36 33 33 30 30 33
66 71 70 67 62 58 61 55 51 50 58 51 56 41 40 41 35 36 30 37 35 33 34 32 29 34 33 32 33 32 31 34 38 37 25 23 26 20 25 28 36 36 34 34 33
72 73 74 69 59 60 59 56 55 57 65 48 52 41 38 33 35 34 33 32 30 33 34 29 29 32 31 31 33 33 33 32 27 28 35 30 24 21 24 24 25 33 35 35 35
78 79 73 72 64 63 60 60 61 65 44 36 43 44 38 32 31 38 32 33 33 33 32 27 32 31 33 33 33 32 29 24 23 26 29 22 30 25 32 24 35 40 32 32 33
79 75 71 67 64 63 58 56 63 61 57 47 27 24 36 33 29 32 32 34 31 28 23 26 31 32 29 30 29 32 28 23 21 16 19 20 26 30 36 38 16 34 29 31 33
75 65 61 65 64 53 47 52 51 49 50 31 51 23 29 27 24 34 33 30 28 28 25 23 25 21 27 25 26 23 31 26 26 30 22 25 26 32 32 37 47 40 33 31 30
65 58 60 55 51 45 43 43 42 42 44 43 37 44 47 31 32 33 29 28 28 27 23 23 20 29 25 27 31 29 24 26 35 26 28 22 28 27 24 30 27 31 34 33 32
54 53 52 47 43 38 33 34 33 33 39 36 37 37 35 31 38 30 33 24 29 27 29 30 28 27 26 30 27 31 32 33 28 33 27 28 27 25 24 28 20 25 30 33 33
47 45 45 40 35 26 23 20 21 31 29 41 33 44 40 38 37 32 36 40 35 34 35 31 25 29 30 19 24 21 22 30 32 28 31 28 24 28 23 30 35 29 26 32 36
39 39 37 23 19 14 17 17 24 18 26 31 34 42 45 41 23 32 25 46 47 38 39 31 35 31 25 28 29 29 34 23 29 33 31 27 28 26 25 28 32 33 35 31 30
37 33 25 15 17 14 13 11 14 18 17 24 20 25 38 45 40 37 32 36 35 36 37 39 36 35 32 25 27 26 27 24 23 25 22 24 19 20 20 23 27 30 28 29 30
34 28 20 11 13 13 13 12 12 17 17 24 20 30 32 38 37 38 34 32 28 32 34 36 41 38 38 36 29 37 26 26 30 22 25 16 15 25 24 27 25 27 26 25 26
26 22 15 11 11 10 11 10 15 17 14 17 16 19 24 23 26 30 36 26 29 31 33 40 46 42 40 37 14 30 27 26 28 25 22 22 25 30 24 29 25 30 27 28 30
21 15 12 12 7 6 11 12 15 15 13 11 22 27 22 20 26 29 23 24 24 22 23 23 32 34 39 37 38 39 35 32 25 27 28 26 24 26 31 32 38 32 31 30 31
Wind_Direction
332 330 333 332 334 334 332 329 325 320 312 301 293 289 284 280 279 278 278 273 266 257 250 245 244 243 241 241 242 242 241 243 242 241 240 239 243 241 241 244 247 249 244 245 253
325 325 324 321 322 321 322 318 318 319 321 316 307 290 286 282 276 273 276 281 271 263 250 246 241 239 240 238 239 241 244 243 239 236 235 235 243 245 240 242 245 244 246 246 252
319 315 317 316 316 311 313 310 311 315 317 314 312 304 292 287 281 281 276 280 277 270 254 246 246 241 239 238 238 239 241 240 241 244 243 243 250 247 249 242 243 244 248 251 251
317 313 316 318 318 311 309 306 307 311 311 311 312 306 302 293 291 283 278 276 275 270 258 249 245 246 238 237 236 238 239 240 241 246 246 245 245 246 247 244 242 245 245 250 252
316 316 316 318 317 314 308 304 302 307 310 308 311 307 304 296 291 287 274 274 274 272 262 249 247 247 243 237 235 234 237 239 242 244 243 243 243 243 243 243 243 243 243 247 254
317 313 313 312 311 309 309 305 300 300 304 305 306 302 304 301 293 284 275 272 274 272 263 256 247 249 246 241 236 236 234 238 241 244 243 243 243 242 243 244 242 244 245 244 250
314 314 314 312 311 307 301 301 300 298 298 299 300 299 301 300 292 288 277 271 268 266 263 257 252 249 252 246 242 238 235 239 241 243 243 241 241 244 246 245 244 246 247 249 249
312 312 311 311 312 309 304 297 295 296 296 295 294 294 295 298 295 288 280 269 266 264 258 256 255 251 250 250 244 239 236 236 239 241 241 241 241 246 243 246 249 248 249 251 252
315 312 309 309 308 306 303 300 295 293 293 293 290 289 289 291 290 287 282 267 264 267 260 253 250 254 249 250 246 237 235 235 236 239 238 239 235 247 243 246 247 248 250 253 255
312 310 307 301 299 299 298 296 294 292 290 288 288 288 288 286 285 283 278 269 262 260 261 254 249 245 246 242 248 241 231 224 227 248 239 242 230 237 246 246 245 246 248 250 254
307 304 305 305 303 300 299 295 293 291 290 287 286 282 285 278 278 277 274 265 258 258 263 254 246 243 249 245 239 238 234 223 210 222 242 238 234 235 247 246 242 245 246 247 251
306 303 303 302 301 301 299 297 295 293 290 285 283 283 276 276 272 273 269 261 256 259 250 248 247 245 240 239 234 226 228 218 224 220 237 237 240 236 241 246 239 240 245 244 243
305 304 303 301 301 300 300 299 298 294 293 289 282 279 270 271 269 270 265 258 253 250 252 250 246 234 234 236 238 237 230 229 232 242 244 247 244 242 238 246 243 241 239 240 232
305 302 302 303 302 303 297 297 294 290 290 292 278 273 269 267 266 267 259 253 250 248 251 245 234 234 233 232 235 240 233 227 221 228 239 252 245 247 238 245 245 241 238 233 234
305 306 305 308 308 300 301 296 285 280 279 281 280 273 262 264 256 253 252 246 248 249 244 246 231 235 230 231 234 233 231 237 239 232 232 232 245 229 241 243 244 236 234 233 234
305 306 308 309 307 299 290 281 274 266 266 255 264 262 258 252 249 246 244 240 235 237 237 230 235 229 228 229 230 231 230 235 234 238 242 224 224 226 221 218 246 242 235 236 235
309 311 313 312 302 296 275 265 257 251 251 257 263 259 254 242 241 246 242 240 236 235 236 234 227 232 227 226 227 229 224 226 230 229 241 234 221 210 210 221 229 247 234 237 236
310 313 314 307 291 280 274 266 260 260 257 247 254 215 248 228 223 228 231 229 221 225 221 222 225 226 229 229 232 229 224 214 223 239 245 235 228 209 226 213 200 236 243 240 240
317 318 308 293 290 289 283 279 276 263 259 236 236 216 207 221 227 230 225 225 219 222 217 219 226 246 238 223 206 226 217 211 236 211 221 206 211 222 227 234 238 248 249 242 242
322 309 298 297 298 292 278 279 266 264 257 244 222 222 230 189 221 216 228 221 216 216 205 208 209 228 234 221 213 202 206 218 217 227 215 233 217 231 233 251 251 243 241 242 243
309 300 303 306 303 294 284 280 271 258 243 244 228 217 210 221 201 200 223 214 219 218 213 200 208 217 223 223 213 206 216 209 213 220 221 214 226 236 247 226 247 244 243 243 244
303 307 311 310 304 298 295 284 279 255 272 246 222 220 211 208 213 222 200 206 220 206 215 202 213 215 195 223 201 222 224 218 224 219 228 231 231 247 241 239 260 229 242 243 245
307 312 315 310 309 302 286 278 273 261 261 240 240 234 215 216 234 235 181 206 216 212 215 198 205 213 188 211 211 210 221 210 219 232 232 232 239 241 253 252 245 259 261 252 248
311 315 316 302 297 294 286 274 248 256 253 227 242 211 215 216 208 236 220 210 214 222 220 205 206 207 212 218 222 219 215 220 228 227 233 237 260 253 251 249 250 252 254 251 246
310 313 307 276 262 262 261 269 254 260 245 218 218 220 221 226 221 214 221 229 212 225 219 210 212 211 217 218 232 211 225 223 236 243 235 241 244 257 261 254 260 259 260 258 253
304 304 286 253 252 263 255 254 245 251 248 240 215 220 213 204 235 224 219 226 229 226 223 223 220 218 216 215 212 233 229 230 236 236 241 235 232 258 250 254 258 266 261 260 258
294 281 248 249 268 259 236 237 247 251 217 196 225 221 196 224 225 221 213 222 220 216 207 196 206 220 227 225 225 231 235 237 236 237 245 245 255 231 244 259 266 264 266 261 261